User: anonymous   Login
Location: Byszew
(52.1813°N, 19.2693°E)
Time: 22:53:43
(UTC+00:00)
Language:

Cosmos 2322 Rocket - Orbit

View from above orbital plane
View from above orbital plane
View from above satellite
View from above satellite

Ground track
Ground track

The orbit data is extracted from the following two-line orbital elements,

1 23705U 95058B   21207.48352473 -.00000200  00000-0 -78350-4 0  9993
2 23705  71.0232 121.2391 0012263 182.2573 177.8497 14.15152277329131
Epoch (UTC): 26 July 2021 11:36:16
Eccentricity: 0.0012263
inclination: 71.0232°
perigee height: 833 km
apogee height: 850 km
right ascension of ascending node: 121.2391°
argument of perigee: 182.2573°
revolutions per day: 14.15152277
mean anomaly at epoch: 177.8497°
orbit number at epoch: 32913

The dashed part of the orbit path shows where the satellite is in the earth's shadow,  

DLR